EST,Max TemperatureF,Mean TemperatureF,Min TemperatureF,Max Dew PointF,MeanDew PointF,Min DewpointF,Max Humidity, Mean Humidity, Min Humidity, Max Sea Level PressureIn, Mean Sea Level PressureIn, Min Sea Level PressureIn, Max VisibilityMiles, Mean VisibilityMiles, Min VisibilityMiles, Max Wind SpeedMPH, Mean Wind SpeedMPH, Max Gust SpeedMPH,PrecipitationIn, CloudCover, Events, WindDirDegrees
2012-12-1,19,16,12,19,11,3,96,77,59,30.72,30.64,30.54,10,6,1,9,5,,0.02,8,Rain-Snow,17
2012-12-2,43,31,19,43,28,19,100,97,91,30.53,30.27,29.96,6,2,0,9,3,18,0.35,8,Fog-Rain,211
2012-12-3,48,39,30,43,38,29,100,87,60,30.33,30.07,29.93,10,6,0,13,6,21,0.03,5,Fog-Rain,260
2012-12-4,50,38,28,49,37,26,100,96,87,30.32,30.19,29.95,10,4,0,10,3,16,0.03,6,Fog,187
2012-12-5,52,43,33,52,38,16,100,75,37,30.06,29.87,29.75,10,7,2,16,10,28,0.24,7,Rain,264
2012-12-6,43,35,27,17,14,12,63,46,28,30.30,30.23,30.07,10,10,10,14,9,25,0.00,1,,324
2012-12-7,53,38,23,34,26,16,83,59,35,30.29,30.15,30.04,10,9,4,18,3,28,0.01,3,Rain,193
2012-12-8,42,38,33,34,32,30,100,86,70,30.04,29.96,29.86,6,1,0,7,2,,0.20,8,Fog-Rain,354
2012-12-9,43,36,30,34,28,22,100,76,45,30.33,30.13,29.89,10,6,0,13,4,20,0.00,2,Fog,325
2012-12-10,32,30,28,32,29,23,100,95,69,30.24,29.80,29.48,10,3,0,14,6,,0.33,8,Fog-Rain-Snow,16
2012-12-11,37,30,21,32,26,17,100,80,57,30.13,29.83,29.54,10,9,2,12,4,20,0.01,4,,297
2012-12-12,35,26,17,20,18,15,93,72,48,30.40,30.31,30.15,10,10,10,6,2,,0.00,0,,274
2012-12-13,39,30,21,24,21,18,96,71,50,30.45,30.38,30.25,10,10,9,8,2,,0.00,0,,222
2012-12-14,39,32,24,27,24,21,88,70,51,30.24,30.10,29.99,10,10,9,10,3,,0.00,2,,254
2012-12-15,36,26,14,24,8,2,66,55,40,30.40,30.32,30.13,10,10,10,16,10,18,0.00,0,,3
2012-12-16,19,14,10,16,9,3,93,74,54,30.41,30.31,30.23,10,6,0,8,4,,0.08,6,Fog-Snow,18
2012-12-17,30,24,17,30,19,14,100,90,86,30.25,30.12,29.98,8,2,0,14,10,,0.16,8,Fog-Snow,14
2012-12-18,39,34,30,38,35,30,100,97,93,29.95,29.62,29.43,9,3,1,17,11,23,0.56,8,Rain,25
2012-12-19,35,34,32,34,32,30,100,93,85,30.01,29.68,29.44,10,6,2,18,14,25,0.05,8,Rain-Snow,357
2012-12-20,34,32,30,30,27,24,100,86,73,30.22,30.14,30.01,10,10,4,12,7,,0.00,6,Snow,25
2012-12-21,50,40,30,48,38,25,100,92,82,30.09,29.49,29.12,10,5,0,28,10,46,1.23,8,Fog-Rain-Snow,107
2012-12-22,39,32,23,38,27,9,96,81,55,29.51,29.27,29.10,10,9,0,17,7,23,0.03,7,Fog-Rain-Snow,248
2012-12-23,30,26,21,18,11,7,66,55,43,29.77,29.69,29.53,10,10,10,22,12,34,0.00,5,,268
2012-12-24,30,26,21,20,13,10,72,58,43,30.07,29.98,29.79,10,10,10,12,6,21,0.00,0,,284
2012-12-25,28,22,17,16,14,10,85,70,58,30.23,30.10,30.04,10,10,10,8,3,,0.00,3,,339
2012-12-26,30,21,12,14,11,8,84,66,47,30.35,30.28,30.17,10,10,10,10,5,,0.00,1,,21
2012-12-27,27,23,19,25,21,12,93,88,68,30.12,29.67,29.49,10,2,0,26,18,38,0.07,8,Fog-Snow,18
2012-12-28,32,28,21,23,18,14,88,69,54,29.94,29.78,29.55,10,9,1,23,16,31,0.00,3,Snow,316
2012-12-29,23,20,17,20,18,13,93,87,71,29.99,29.76,29.49,10,4,0,15,6,24,0.08,5,Fog-Snow,13
2012-12-30,25,18,12,19,13,-1,93,74,54,29.79,29.52,29.41,10,5,1,21,15,33,0.01,6,Snow,323
2012-12-31,30,21,12,19,10,0,78,58,47,29.88,29.81,29.67,10,9,2,18,10,28,0.00,2,,271